Hourly Weather Kleciska

Today, 27 July, Tuesday

Time Temperature Precipitation Wind Pressure Humidity
00:00 +20°C° 0 mm 3 mps 744 mmHg 78%
01:00 +20°C° 0 mm 2 mps 744 mmHg 75%
02:00 +20°C° 0.1 mm 2 mps 743 mmHg 77%
03:00 +19°C° 0.1 mm 2 mps 743 mmHg 78%
04:00 +19°C° 0.1 mm 2 mps 743 mmHg 80%
05:00 +22°C° 0.2 mm 1 mps 743 mmHg 77%
06:00 +23°C° 0.2 mm 1 mps 744 mmHg 74%
07:00 +24°C° 0.2 mm 1 mps 744 mmHg 71%
08:00 +26°C° 0.1 mm 1 mps 744 mmHg 66%
09:00 +28°C° 0.1 mm 1 mps 744 mmHg 60%
10:00 +29°C° 0.1 mm 2 mps 744 mmHg 55%
11:00 +30°C° 0.1 mm 2 mps 744 mmHg 52%
12:00 +31°C° 0.1 mm 2 mps 744 mmHg 49%
13:00 +31°C° 0.1 mm 3 mps 744 mmHg 46%
14:00 +31°C° 0 mm 3 mps 744 mmHg 47%
15:00 +30°C° 0 mm 3 mps 744 mmHg 48%
16:00 +30°C° 0 mm 3 mps 743 mmHg 49%
17:00 +29°C° 0 mm 3 mps 744 mmHg 55%
18:00 +27°C° 0 mm 2 mps 744 mmHg 60%
19:00 +26°C° 0 mm 2 mps 744 mmHg 65%
20:00 +25°C° 0 mm 2 mps 744 mmHg 68%
21:00 +24°C° 0 mm 2 mps 744 mmHg 70%
22:00 +23°C° 0 mm 2 mps 744 mmHg 72%
23:00 +22°C° 0 mm 1 mps 744 mmHg 73%

Tomorrow, 28 July, Wednesday

Time Temperature Precipitation Wind Pressure Humidity
00:00 +22°C° 0 mm 1 mps 744 mmHg 74%
01:00 +22°C° 0 mm 1 mps 744 mmHg 75%
02:00 +21°C° 0 mm 1 mps 744 mmHg 76%
03:00 +21°C° 0 mm 1 mps 744 mmHg 77%
04:00 +20°C° 0 mm 2 mps 744 mmHg 79%
05:00 +23°C° 0 mm 2 mps 744 mmHg 73%
06:00 +24°C° 0 mm 2 mps 744 mmHg 68%
07:00 +26°C° 0 mm 2 mps 744 mmHg 62%
08:00 +28°C° 0 mm 2 mps 744 mmHg 56%
09:00 +29°C° 0 mm 3 mps 743 mmHg 50%
10:00 +31°C° 0 mm 3 mps 743 mmHg 44%
11:00 +31°C° 0 mm 3 mps 743 mmHg 45%
12:00 +31°C° 0 mm 3 mps 742 mmHg 46%
13:00 +31°C° 0 mm 3 mps 742 mmHg 47%
14:00 +28°C° 1.8 mm 5 mps 742 mmHg 61%
15:00 +26°C° 1.8 mm 6 mps 742 mmHg 75%
16:00 +22°C° 1.8 mm 7 mps 742 mmHg 90%
17:00 +21°C° 0.3 mm 6 mps 742 mmHg 90%
18:00 +21°C° 0.3 mm 5 mps 743 mmHg 90%
19:00 +21°C° 0.3 mm 4 mps 743 mmHg 91%
20:00 +20°C° 0 mm 3 mps 743 mmHg 92%
21:00 +19°C° 0 mm 3 mps 744 mmHg 94%
22:00 +19°C° 0 mm 2 mps 744 mmHg 95%
23:00 +18°C° 0 mm 2 mps 744 mmHg 95%

Day after tomorrow, 29 July, Thursday

Time Temperature Precipitation Wind Pressure Humidity
00:00 +18°C° 0 mm 2 mps 744 mmHg 95%
01:00 +18°C° 0 mm 2 mps 744 mmHg 94%
02:00 +18°C° 0 mm 2 mps 744 mmHg 95%
03:00 +18°C° 0 mm 2 mps 744 mmHg 95%
04:00 +18°C° 0 mm 2 mps 744 mmHg 95%
05:00 +19°C° 0 mm 3 mps 744 mmHg 88%
06:00 +20°C° 0 mm 3 mps 744 mmHg 81%
07:00 +22°C° 0 mm 3 mps 744 mmHg 74%
08:00 +24°C° 0 mm 3 mps 744 mmHg 67%
09:00 +26°C° 0 mm 3 mps 745 mmHg 60%
10:00 +27°C° 0 mm 3 mps 745 mmHg 53%
11:00 +28°C° 0 mm 3 mps 744 mmHg 49%
12:00 +29°C° 0 mm 3 mps 744 mmHg 45%
13:00 +30°C° 0 mm 3 mps 744 mmHg 42%
14:00 +30°C° 0 mm 3 mps 744 mmHg 41%
15:00 +30°C° 0 mm 3 mps 743 mmHg 40%
16:00 +30°C° 0 mm 3 mps 743 mmHg 39%
17:00 +28°C° 0 mm 3 mps 743 mmHg 46%
18:00 +27°C° 0 mm 2 mps 743 mmHg 52%
19:00 +25°C° 0 mm 2 mps 743 mmHg 59%
20:00 +24°C° 0 mm 1 mps 743 mmHg 61%
21:00 +23°C° 0 mm 1 mps 743 mmHg 63%
22:00 +22°C° 0 mm 1 mps 743 mmHg 65%
23:00 +22°C° 0 mm 1 mps 743 mmHg 66%

30 July, Friday

Time Temperature Precipitation Wind Pressure Humidity
00:00 +20°C° 0 mm 2 mps 743 mmHg 66%
01:00 +20°C° 0 mm 2 mps 743 mmHg 66%
02:00 +20°C° 0.1 mm 2 mps 743 mmHg 69%
03:00 +19°C° 0.1 mm 2 mps 742 mmHg 72%
04:00 +19°C° 0.1 mm 2 mps 742 mmHg 76%
05:00 +20°C° 0.3 mm 2 mps 742 mmHg 78%
06:00 +20°C° 0.3 mm 2 mps 742 mmHg 79%
07:00 +21°C° 0.3 mm 2 mps 742 mmHg 81%
08:00 +24°C° 0 mm 2 mps 742 mmHg 74%
09:00 +25°C° 0 mm 1 mps 742 mmHg 66%
10:00 +27°C° 0 mm 1 mps 742 mmHg 59%
11:00 +27°C° 0 mm 2 mps 741 mmHg 58%
12:00 +27°C° 0 mm 3 mps 741 mmHg 58%
13:00 +28°C° 0 mm 3 mps 741 mmHg 57%
14:00 +28°C° 0.1 mm 3 mps 741 mmHg 55%
15:00 +28°C° 0.1 mm 4 mps 740 mmHg 54%
16:00 +28°C° 0.1 mm 4 mps 740 mmHg 52%
17:00 +26°C° 0 mm 3 mps 740 mmHg 57%
18:00 +25°C° 0 mm 2 mps 740 mmHg 63%
19:00 +23°C° 0 mm 1 mps 740 mmHg 68%
20:00 +23°C° 0 mm 1 mps 740 mmHg 69%
21:00 +22°C° 0 mm 1 mps 740 mmHg 69%
22:00 +21°C° 0 mm 1 mps 741 mmHg 70%
23:00 +21°C° 0 mm 1 mps 741 mmHg 70%

31 July, Saturday

Time Temperature Precipitation Wind Pressure Humidity
00:00 +20°C° 0 mm 1 mps 741 mmHg 70%
01:00 +20°C° 0 mm 1 mps 741 mmHg 70%
02:00 +20°C° 0 mm 1 mps 741 mmHg 69%
03:00 +19°C° 0 mm 1 mps 741 mmHg 69%
04:00 +18°C° 0 mm 2 mps 741 mmHg 68%
05:00 +19°C° 0 mm 2 mps 741 mmHg 65%
06:00 +20°C° 0 mm 2 mps 741 mmHg 61%
07:00 +23°C° 0 mm 2 mps 741 mmHg 57%
08:00 +24°C° 0 mm 3 mps 741 mmHg 54%
09:00 +25°C° 0 mm 3 mps 741 mmHg 50%
10:00 +26°C° 0 mm 4 mps 741 mmHg 46%
11:00 +27°C° 0 mm 4 mps 741 mmHg 44%
12:00 +27°C° 0 mm 4 mps 741 mmHg 43%
13:00 +28°C° 0 mm 4 mps 741 mmHg 41%
14:00 +28°C° 0 mm 4 mps 741 mmHg 42%
15:00 +27°C° 0 mm 4 mps 741 mmHg 42%
16:00 +27°C° 0 mm 5 mps 741 mmHg 42%
17:00 +26°C° 0 mm 4 mps 741 mmHg 48%
18:00 +24°C° 0 mm 3 mps 741 mmHg 54%
19:00 +21°C° 0 mm 2 mps 741 mmHg 61%
20:00 +21°C° 0 mm 2 mps 741 mmHg 60%
21:00 +21°C° 0 mm 2 mps 741 mmHg 60%
22:00 +21°C° 0 mm 1 mps 741 mmHg 60%
23:00 +20°C° 0 mm 2 mps 741 mmHg 63%

1 August, Sunday

Time Temperature Precipitation Wind Pressure Humidity
00:00 +19°C° 0 mm 2 mps 741 mmHg 65%
01:00 +19°C° 0 mm 2 mps 741 mmHg 68%
02:00 +19°C° 0 mm 2 mps 741 mmHg 70%
03:00 +19°C° 0 mm 2 mps 741 mmHg 71%
04:00 +19°C° 0 mm 2 mps 741 mmHg 73%
05:00 +20°C° 0 mm 2 mps 741 mmHg 70%
06:00 +20°C° 0 mm 2 mps 741 mmHg 66%
07:00 +21°C° 0 mm 2 mps 741 mmHg 63%
08:00 +24°C° 0 mm 2 mps 741 mmHg 55%
09:00 +25°C° 0 mm 2 mps 742 mmHg 48%
10:00 +27°C° 0 mm 2 mps 742 mmHg 40%
11:00 +27°C° 0 mm 2 mps 741 mmHg 39%
12:00 +28°C° 0 mm 1 mps 741 mmHg 38%
13:00 +28°C° 0 mm 1 mps 741 mmHg 37%
14:00 +27°C° 0.1 mm 1 mps 741 mmHg 44%
15:00 +26°C° 0.1 mm 2 mps 741 mmHg 50%
16:00 +24°C° 0.1 mm 2 mps 741 mmHg 57%
17:00 +23°C° 0.7 mm 2 mps 741 mmHg 68%
18:00 +20°C° 0.7 mm 2 mps 741 mmHg 79%
19:00 +18°C° 0.7 mm 3 mps 741 mmHg 90%
20:00 +18°C° 0 mm 2 mps 741 mmHg 89%
21:00 +18°C° 0 mm 2 mps 740 mmHg 89%
22:00 +19°C° 0 mm 1 mps 740 mmHg 89%
23:00 +18°C° 0 mm 1 mps 740 mmHg 89%
Show more